Time,TemperatureF,DewpointF,PressureIn,WindDirection,WindDirectionDegrees,WindSpeedMPH,WindSpeedGustMPH,Humidity,HourlyPrecipIn,Conditions,Clouds,dailyrainin,SoftwareType,DateUTC
2013-06-15 00:00:00,57.3,56.5,29.87,NNE,22,0.0,8.0,97,0.00,,,0.35,Wunderground v.1.15,2013-06-15 04:00:00,
2013-06-15 00:05:00,57.4,56.6,29.87,NNE,22,0.0,8.0,97,0.00,,,0.00,Wunderground v.1.15,2013-06-15 04:05:00,
2013-06-15 00:10:00,57.4,56.6,29.87,NNE,22,0.0,8.0,97,0.00,,,0.00,Wunderground v.1.15,2013-06-15 04:10:00,
2013-06-15 00:15:00,57.5,56.7,29.87,North,11,0.0,8.0,97,0.00,,,0.00,Wunderground v.1.15,2013-06-15 04:15:00,
2013-06-15 00:20:00,57.6,56.8,29.87,North,11,0.0,8.0,97,0.00,,,0.00,Wunderground v.1.15,2013-06-15 04:20:00,
2013-06-15 00:25:00,57.7,56.6,29.87,NE,51,0.0,8.0,96,0.00,,,0.00,Wunderground v.1.15,2013-06-15 04:25:00,
2013-06-15 00:30:00,58.0,56.9,29.87,NNE,24,1.0,1.0,96,0.00,,,0.00,Wunderground v.1.15,2013-06-15 04:30:00,
2013-06-15 00:35:00,58.2,56.8,29.87,NNE,12,1.0,8.0,95,0.00,,,0.00,Wunderground v.1.15,2013-06-15 04:35:00,
2013-06-15 00:40:00,58.3,56.9,29.87,North,11,0.0,8.0,95,0.00,,,0.00,Wunderground v.1.15,2013-06-15 04:40:00,
2013-06-15 00:45:00,58.3,56.9,29.87,North,5,0.0,8.0,95,0.00,,,0.00,Wunderground v.1.15,2013-06-15 04:45:00,
2013-06-15 00:50:00,58.4,56.7,29.87,North,5,1.0,1.0,94,0.00,,,0.00,Wunderground v.1.15,2013-06-15 04:50:00,
2013-06-15 00:55:00,58.6,56.9,29.87,NNE,22,1.0,8.0,94,0.00,,,0.00,Wunderground v.1.15,2013-06-15 04:55:00,
2013-06-15 01:05:00,58.6,56.6,29.88,NNE,13,1.0,8.0,93,0.00,,,0.00,Wunderground v.1.15,2013-06-15 05:05:00,
2013-06-15 01:10:00,58.8,56.5,29.88,North,11,1.0,8.0,92,0.00,,,0.00,Wunderground v.1.15,2013-06-15 05:10:00,
2013-06-15 01:15:00,59.0,56.7,29.88,NNE,23,1.0,8.0,92,0.00,,,0.00,Wunderground v.1.15,2013-06-15 05:15:00,
2013-06-15 01:20:00,59.1,56.8,29.88,North,11,1.0,1.0,92,0.00,,,0.00,Wunderground v.1.15,2013-06-15 05:20:00,
2013-06-15 01:25:00,59.0,56.7,29.88,North,11,0.0,8.0,92,0.00,,,0.00,Wunderground v.1.15,2013-06-15 05:25:00,
2013-06-15 01:30:00,58.8,56.5,29.88,NNE,17,0.0,8.0,92,0.00,,,0.00,Wunderground v.1.15,2013-06-15 05:30:00,
2013-06-15 01:40:00,58.6,56.6,29.88,NNE,28,1.0,1.0,93,0.00,,,0.00,Wunderground v.1.15,2013-06-15 05:40:00,
2013-06-15 01:45:00,58.4,56.4,29.88,NNE,16,0.0,8.0,93,0.00,,,0.00,Wunderground v.1.15,2013-06-15 05:45:00,
2013-06-15 01:50:00,58.3,56.3,29.88,NNE,16,0.0,8.0,93,0.00,,,0.00,Wunderground v.1.15,2013-06-15 05:50:00,
2013-06-15 01:55:00,58.0,56.0,29.88,NNE,16,0.0,8.0,93,0.00,,,0.00,Wunderground v.1.15,2013-06-15 05:55:00,
2013-06-15 02:00:00,57.8,55.8,29.88,NNE,14,0.0,8.0,93,0.00,,,0.00,Wunderground v.1.15,2013-06-15 06:00:00,
2013-06-15 02:10:00,57.5,55.8,29.89,NNE,14,0.0,8.0,94,0.00,,,0.00,Wunderground v.1.15,2013-06-15 06:10:00,
2013-06-15 02:20:00,57.3,55.6,29.89,NNE,14,0.0,8.0,94,0.00,,,0.00,Wunderground v.1.15,2013-06-15 06:20:00,
2013-06-15 02:25:00,57.3,55.6,29.89,NNE,15,0.0,8.0,94,0.00,,,0.00,Wunderground v.1.15,2013-06-15 06:25:00,
2013-06-15 02:30:00,57.3,55.6,29.89,North,10,0.0,8.0,94,0.00,,,0.00,Wunderground v.1.15,2013-06-15 06:30:00,
2013-06-15 02:40:00,57.2,55.5,29.90,North,5,0.0,8.0,94,0.00,,,0.00,Wunderground v.1.15,2013-06-15 06:40:00,
2013-06-15 02:45:00,57.2,55.5,29.90,NNE,19,0.0,8.0,94,0.00,,,0.00,Wunderground v.1.15,2013-06-15 06:45:00,
2013-06-15 02:50:00,57.2,55.5,29.90,NNE,21,1.0,1.0,94,0.00,,,0.00,Wunderground v.1.15,2013-06-15 06:50:00,
2013-06-15 02:55:00,57.3,55.6,29.90,NNE,13,1.0,8.0,94,0.00,,,0.00,Wunderground v.1.15,2013-06-15 06:55:00,
2013-06-15 03:00:00,57.4,55.4,29.90,NNE,13,1.0,8.0,93,0.00,,,0.00,Wunderground v.1.15,2013-06-15 07:00:00,
2013-06-15 03:10:00,57.6,55.3,29.90,North,355,0.0,8.0,92,0.00,,,0.00,Wunderground v.1.15,2013-06-15 07:10:00,
2013-06-15 03:15:00,57.5,55.5,29.90,North,9,0.0,8.0,93,0.00,,,0.00,Wunderground v.1.15,2013-06-15 07:15:00,
2013-06-15 03:25:00,57.2,55.2,29.90,North,9,0.0,8.0,93,0.00,,,0.00,Wunderground v.1.15,2013-06-15 07:25:00,
2013-06-15 03:35:00,57.0,55.3,29.90,North,5,0.0,8.0,94,0.00,,,0.00,Wunderground v.1.15,2013-06-15 07:35:00,
2013-06-15 03:40:00,57.0,55.3,29.90,North,349,0.0,8.0,94,0.00,,,0.00,Wunderground v.1.15,2013-06-15 07:40:00,
2013-06-15 03:45:00,56.7,55.0,29.90,North,349,0.0,8.0,94,0.00,,,0.00,Wunderground v.1.15,2013-06-15 07:45:00,
2013-06-15 03:50:00,56.4,54.7,29.90,North,349,0.0,8.0,94,0.00,,,0.00,Wunderground v.1.15,2013-06-15 07:50:00,
2013-06-15 03:55:00,56.3,54.9,29.90,NNE,12,0.0,8.0,95,0.00,,,0.00,Wunderground v.1.15,2013-06-15 07:55:00,
2013-06-15 04:00:00,56.1,55.0,29.90,NNE,22,0.0,8.0,96,0.00,,,0.00,Wunderground v.1.15,2013-06-15 08:00:00,
2013-06-15 04:05:00,55.9,54.8,29.90,NE,47,0.0,8.0,96,0.00,,,0.00,Wunderground v.1.15,2013-06-15 08:05:00,
2013-06-15 04:15:00,55.6,54.5,29.90,North,355,0.0,8.0,96,0.00,,,0.00,Wunderground v.1.15,2013-06-15 08:15:00,
2013-06-15 04:20:00,55.4,54.3,29.90,North,11,0.0,8.0,96,0.00,,,0.00,Wunderground v.1.15,2013-06-15 08:20:00,
2013-06-15 04:25:00,55.3,54.5,29.90,North,5,0.0,8.0,97,0.00,,,0.00,Wunderground v.1.15,2013-06-15 08:25:00,
2013-06-15 04:30:00,55.1,54.3,29.90,North,5,0.0,8.0,97,0.00,,,0.00,Wunderground v.1.15,2013-06-15 08:30:00,
2013-06-15 04:40:00,54.9,54.1,29.90,North,355,0.0,8.0,97,0.00,,,0.00,Wunderground v.1.15,2013-06-15 08:40:00,
2013-06-15 04:45:00,54.9,54.1,29.90,North,360,0.0,8.0,97,0.00,,,0.00,Wunderground v.1.15,2013-06-15 08:45:00,
2013-06-15 04:50:00,54.8,54.0,29.91,NE,48,0.0,8.0,97,0.00,,,0.00,Wunderground v.1.15,2013-06-15 08:50:00,
2013-06-15 04:55:00,54.6,53.8,29.91,NNE,16,0.0,8.0,97,0.00,,,0.00,Wunderground v.1.15,2013-06-15 08:55:00,
2013-06-15 05:05:00,54.8,53.7,29.91,NNE,32,0.0,8.0,96,0.00,,,0.00,Wunderground v.1.15,2013-06-15 09:05:00,
2013-06-15 05:10:00,54.8,53.7,29.92,NNE,16,0.0,8.0,96,0.00,,,0.00,Wunderground v.1.15,2013-06-15 09:10:00,
2013-06-15 05:15:00,54.7,53.6,29.92,North,5,0.0,8.0,96,0.00,,,0.00,Wunderground v.1.15,2013-06-15 09:15:00,
2013-06-15 05:20:00,54.7,53.6,29.92,North,5,0.0,8.0,96,0.00,,,0.00,Wunderground v.1.15,2013-06-15 09:20:00,
2013-06-15 05:25:00,54.7,53.6,29.92,NNE,13,0.0,8.0,96,0.00,,,0.00,Wunderground v.1.15,2013-06-15 09:25:00,
2013-06-15 05:30:00,54.6,53.5,29.92,NNE,12,0.0,8.0,96,0.00,,,0.00,Wunderground v.1.15,2013-06-15 09:30:00,
2013-06-15 05:35:00,54.5,53.1,29.92,NNE,12,0.0,8.0,95,0.00,,,0.00,Wunderground v.1.15,2013-06-15 09:35:00,
2013-06-15 05:45:00,54.3,52.9,29.92,NNE,12,0.0,8.0,95,0.00,,,0.00,Wunderground v.1.15,2013-06-15 09:45:00,
2013-06-15 05:50:00,54.2,53.1,29.92,NNE,12,0.0,8.0,96,0.00,,,0.00,Wunderground v.1.15,2013-06-15 09:50:00,
2013-06-15 05:55:00,54.0,52.9,29.92,NNE,12,0.0,8.0,96,0.00,,,0.00,Wunderground v.1.15,2013-06-15 09:55:00,
2013-06-15 06:00:00,53.9,52.8,29.92,NNE,12,0.0,8.0,96,0.00,,,0.00,Wunderground v.1.15,2013-06-15 10:00:00,
2013-06-15 06:05:00,53.9,52.8,29.92,NNW,347,0.0,8.0,96,0.00,,,0.00,Wunderground v.1.15,2013-06-15 10:05:00,
2013-06-15 06:10:00,54.0,52.9,29.92,NNW,347,0.0,8.0,96,0.00,,,0.00,Wunderground v.1.15,2013-06-15 10:10:00,
2013-06-15 06:15:00,54.0,53.2,29.92,NNW,348,0.0,8.0,97,0.00,,,0.00,Wunderground v.1.15,2013-06-15 10:15:00,
2013-06-15 06:20:00,54.1,53.0,29.93,NNW,348,0.0,8.0,96,0.00,,,0.00,Wunderground v.1.15,2013-06-15 10:20:00,
2013-06-15 06:30:00,54.4,53.6,29.93,NNW,348,0.0,8.0,97,0.00,,,0.00,Wunderground v.1.15,2013-06-15 10:30:00,
2013-06-15 06:35:00,54.5,53.4,29.93,NNW,348,0.0,8.0,96,0.00,,,0.00,Wunderground v.1.15,2013-06-15 10:35:00,
2013-06-15 06:40:00,54.7,53.6,29.93,NNW,348,0.0,8.0,96,0.00,,,0.00,Wunderground v.1.15,2013-06-15 10:40:00,
2013-06-15 06:45:00,54.9,53.5,29.94,NNW,348,0.0,8.0,95,0.00,,,0.00,Wunderground v.1.15,2013-06-15 10:45:00,
2013-06-15 06:50:00,55.1,53.7,29.94,NNW,348,0.0,8.0,95,0.00,,,0.00,Wunderground v.1.15,2013-06-15 10:50:00,
2013-06-15 07:00:00,55.9,53.9,29.94,North,11,0.0,8.0,93,0.00,,,0.00,Wunderground v.1.15,2013-06-15 11:00:00,
2013-06-15 07:05:00,56.1,53.5,29.94,North,11,0.0,8.0,91,0.00,,,0.00,Wunderground v.1.15,2013-06-15 11:05:00,
2013-06-15 07:10:00,56.6,53.7,29.94,North,9,0.0,8.0,90,0.00,,,0.00,Wunderground v.1.15,2013-06-15 11:10:00,
2013-06-15 07:20:00,57.3,54.1,29.95,East,84,0.0,8.0,89,0.00,,,0.00,Wunderground v.1.15,2013-06-15 11:20:00,
2013-06-15 07:25:00,57.6,54.1,29.95,East,84,0.0,8.0,88,0.00,,,0.00,Wunderground v.1.15,2013-06-15 11:25:00,
2013-06-15 07:35:00,58.3,54.1,29.95,North,10,0.0,8.0,86,0.00,,,0.00,Wunderground v.1.15,2013-06-15 11:35:00,
2013-06-15 07:40:00,58.7,54.5,29.96,NNE,22,0.0,8.0,86,0.00,,,0.00,Wunderground v.1.15,2013-06-15 11:40:00,
2013-06-15 07:45:00,59.0,54.2,29.96,NE,56,0.0,8.0,84,0.00,,,0.00,Wunderground v.1.15,2013-06-15 11:45:00,
2013-06-15 07:50:00,59.3,54.5,29.95,NE,46,0.0,8.0,84,0.00,,,0.00,Wunderground v.1.15,2013-06-15 11:50:00,
2013-06-15 08:00:00,59.7,54.2,29.95,NE,55,0.0,8.0,82,0.00,,,0.00,Wunderground v.1.15,2013-06-15 12:00:00,
2013-06-15 08:10:00,60.2,55.0,29.96,NNE,13,0.0,8.0,83,0.00,,,0.00,Wunderground v.1.15,2013-06-15 12:10:00,
2013-06-15 08:15:00,60.4,54.9,29.96,NNE,23,0.0,8.0,82,0.00,,,0.00,Wunderground v.1.15,2013-06-15 12:15:00,
2013-06-15 08:20:00,60.8,54.9,29.96,NNE,30,1.0,1.0,81,0.00,,,0.00,Wunderground v.1.15,2013-06-15 12:20:00,
2013-06-15 08:25:00,61.3,54.4,29.97,NNE,23,0.0,8.0,78,0.00,,,0.00,Wunderground v.1.15,2013-06-15 12:25:00,
2013-06-15 08:30:00,62.0,55.8,29.96,ENE,76,1.0,1.0,80,0.00,,,0.00,Wunderground v.1.15,2013-06-15 12:30:00,
2013-06-15 08:35:00,62.7,55.7,29.97,NNE,30,1.0,8.0,78,0.00,,,0.00,Wunderground v.1.15,2013-06-15 12:35:00,
2013-06-15 08:40:00,63.2,54.8,29.97,ENE,72,1.0,8.0,74,0.00,,,0.00,Wunderground v.1.15,2013-06-15 12:40:00,
2013-06-15 08:50:00,64.2,55.4,29.98,North,11,1.0,1.0,73,0.00,,,0.00,Wunderground v.1.15,2013-06-15 12:50:00,
2013-06-15 08:55:00,64.4,55.9,29.98,North,10,1.0,8.0,74,0.00,,,0.00,Wunderground v.1.15,2013-06-15 12:55:00,
2013-06-15 09:00:00,64.8,54.4,29.98,North,5,1.0,1.0,69,0.00,,,0.00,Wunderground v.1.15,2013-06-15 13:00:00,
2013-06-15 09:05:00,65.2,57.4,29.98,NNE,17,0.0,2.0,76,0.00,,,0.00,Wunderground v.1.15,2013-06-15 13:05:00,
2013-06-15 09:10:00,65.6,56.7,29.98,ENE,61,0.0,8.0,73,0.00,,,0.00,Wunderground v.1.15,2013-06-15 13:10:00,
2013-06-15 09:15:00,66.2,58.4,29.99,ENE,61,0.0,8.0,76,0.00,,,0.00,Wunderground v.1.15,2013-06-15 13:15:00,
2013-06-15 09:20:00,66.7,56.2,29.99,North,5,0.0,8.0,69,0.00,,,0.00,Wunderground v.1.15,2013-06-15 13:20:00,
2013-06-15 09:30:00,66.7,56.6,29.98,ENE,61,1.0,1.0,70,0.00,,,0.00,Wunderground v.1.15,2013-06-15 13:30:00,
2013-06-15 09:35:00,66.7,55.8,29.98,North,360,2.0,2.0,68,0.00,,,0.00,Wunderground v.1.15,2013-06-15 13:35:00,
2013-06-15 09:40:00,66.6,56.5,29.99,ENE,57,2.0,2.0,70,0.00,,,0.00,Wunderground v.1.15,2013-06-15 13:40:00,
2013-06-15 09:45:00,67.1,56.6,29.99,NE,55,1.0,8.0,69,0.00,,,0.00,Wunderground v.1.15,2013-06-15 13:45:00,
2013-06-15 09:50:00,67.7,57.2,29.99,NE,38,0.0,8.0,69,0.00,,,0.00,Wunderground v.1.15,2013-06-15 13:50:00,
2013-06-15 09:55:00,67.7,53.8,29.98,NNE,19,1.0,8.0,61,0.00,,,0.00,Wunderground v.1.15,2013-06-15 13:55:00,
2013-06-15 10:00:00,67.7,54.6,29.99,NE,55,1.0,8.0,63,0.00,,,0.00,Wunderground v.1.15,2013-06-15 14:00:00,
2013-06-15 10:05:00,68.1,57.1,29.98,North,5,0.0,8.0,68,0.00,,,0.00,Wunderground v.1.15,2013-06-15 14:05:00,
2013-06-15 10:10:00,68.4,57.0,29.98,North,9,0.0,8.0,67,0.00,,,0.00,Wunderground v.1.15,2013-06-15 14:10:00,
2013-06-15 10:15:00,68.6,57.2,29.98,NNW,336,1.0,8.0,67,0.00,,,0.00,Wunderground v.1.15,2013-06-15 14:15:00,
2013-06-15 10:25:00,69.3,58.7,29.98,NNE,13,0.0,8.0,69,0.00,,,0.00,Wunderground v.1.15,2013-06-15 14:25:00,
2013-06-15 10:35:00,70.2,57.0,29.97,ENE,67,0.0,8.0,63,0.00,,,0.00,Wunderground v.1.15,2013-06-15 14:35:00,
2013-06-15 10:40:00,70.3,54.3,29.97,East,87,0.0,8.0,57,0.00,,,0.00,Wunderground v.1.15,2013-06-15 14:40:00,
2013-06-15 10:45:00,70.3,56.2,29.97,NNE,18,1.0,8.0,61,0.00,,,0.00,Wunderground v.1.15,2013-06-15 14:45:00,
2013-06-15 10:50:00,70.5,56.9,29.98,ENE,67,1.0,8.0,62,0.00,,,0.00,Wunderground v.1.15,2013-06-15 14:50:00,
2013-06-15 10:55:00,70.9,57.7,29.98,ENE,59,1.0,8.0,63,0.00,,,0.00,Wunderground v.1.15,2013-06-15 14:55:00,
2013-06-15 11:00:00,71.0,55.9,29.98,NNE,30,1.0,8.0,59,0.00,,,0.00,Wunderground v.1.15,2013-06-15 15:00:00,
2013-06-15 11:05:00,70.8,55.8,29.98,NE,37,1.0,8.0,59,0.00,,,0.00,Wunderground v.1.15,2013-06-15 15:05:00,
2013-06-15 11:10:00,70.7,56.1,29.97,WNW,289,0.0,8.0,60,0.00,,,0.00,Wunderground v.1.15,2013-06-15 15:10:00,
2013-06-15 11:15:00,70.9,53.9,29.98,ENE,60,1.0,8.0,55,0.00,,,0.00,Wunderground v.1.15,2013-06-15 15:15:00,
2013-06-15 11:25:00,70.7,52.2,29.98,North,11,1.0,5.0,52,0.00,,,0.00,Wunderground v.1.15,2013-06-15 15:25:00,
2013-06-15 11:30:00,70.4,51.9,29.97,NNE,15,2.0,2.0,52,0.00,,,0.00,Wunderground v.1.15,2013-06-15 15:30:00,
2013-06-15 11:35:00,70.3,53.9,29.98,NNE,28,2.0,8.0,56,0.00,,,0.00,Wunderground v.1.15,2013-06-15 15:35:00,
2013-06-15 11:40:00,70.6,54.6,29.98,NE,34,2.0,8.0,57,0.00,,,0.00,Wunderground v.1.15,2013-06-15 15:40:00,
2013-06-15 11:45:00,70.9,52.4,29.98,NE,40,1.0,8.0,52,0.00,,,0.00,Wunderground v.1.15,2013-06-15 15:45:00,
2013-06-15 11:50:00,71.1,56.0,29.98,North,355,1.0,8.0,59,0.00,,,0.00,Wunderground v.1.15,2013-06-15 15:50:00,
2013-06-15 11:55:00,71.3,52.8,29.98,NNE,17,1.0,8.0,52,0.00,,,0.00,Wunderground v.1.15,2013-06-15 15:55:00,
2013-06-15 12:05:00,71.9,53.3,29.98,NE,56,0.0,8.0,52,0.00,,,0.00,Wunderground v.1.15,2013-06-15 16:05:00,
2013-06-15 12:10:00,71.8,53.2,29.98,NNE,13,1.0,1.0,52,0.00,,,0.00,Wunderground v.1.15,2013-06-15 16:10:00,
2013-06-15 12:15:00,71.6,54.1,29.97,ENE,68,1.0,8.0,54,0.00,,,0.00,Wunderground v.1.15,2013-06-15 16:15:00,
2013-06-15 12:20:00,71.6,55.1,29.97,NNE,19,2.0,2.0,56,0.00,,,0.00,Wunderground v.1.15,2013-06-15 16:20:00,
2013-06-15 12:25:00,71.7,55.7,29.97,North,9,1.0,8.0,57,0.00,,,0.00,Wunderground v.1.15,2013-06-15 16:25:00,
2013-06-15 12:30:00,71.8,54.3,29.97,NE,36,1.0,8.0,54,0.00,,,0.00,Wunderground v.1.15,2013-06-15 16:30:00,
2013-06-15 12:40:00,72.5,56.4,29.96,NE,49,1.0,1.0,57,0.00,,,0.00,Wunderground v.1.15,2013-06-15 16:40:00,
2013-06-15 12:50:00,72.5,56.9,29.96,North,360,1.0,1.0,58,0.00,,,0.00,Wunderground v.1.15,2013-06-15 16:50:00,
2013-06-15 12:55:00,72.6,54.5,29.96,South,185,0.0,8.0,53,0.00,,,0.00,Wunderground v.1.15,2013-06-15 16:55:00,
2013-06-15 13:00:00,72.4,53.8,29.96,NE,38,1.0,8.0,52,0.00,,,0.00,Wunderground v.1.15,2013-06-15 17:00:00,
2013-06-15 13:05:00,72.3,54.7,29.96,West,261,2.0,8.0,54,0.00,,,0.00,Wunderground v.1.15,2013-06-15 17:05:00,
2013-06-15 13:10:00,72.0,54.4,29.96,NE,49,1.0,1.0,54,0.00,,,0.00,Wunderground v.1.15,2013-06-15 17:10:00,
2013-06-15 13:15:00,72.0,54.9,29.96,ESE,107,1.0,8.0,55,0.00,,,0.00,Wunderground v.1.15,2013-06-15 17:15:00,
2013-06-15 13:20:00,72.0,52.9,29.96,NE,49,1.0,1.0,51,0.00,,,0.00,Wunderground v.1.15,2013-06-15 17:20:00,
2013-06-15 13:30:00,71.9,54.3,29.96,NNE,31,1.0,1.0,54,0.00,,,0.00,Wunderground v.1.15,2013-06-15 17:30:00,
2013-06-15 13:35:00,71.9,54.9,29.96,ESE,103,0.0,8.0,55,0.00,,,0.00,Wunderground v.1.15,2013-06-15 17:35:00,
2013-06-15 13:40:00,71.6,55.6,29.96,NE,54,0.0,8.0,57,0.00,,,0.00,Wunderground v.1.15,2013-06-15 17:40:00,
2013-06-15 13:50:00,70.9,53.9,29.95,ENE,62,0.0,8.0,55,0.00,,,0.00,Wunderground v.1.15,2013-06-15 17:50:00,
2013-06-15 13:55:00,71.2,53.2,29.95,NE,43,1.0,8.0,53,0.00,,,0.00,Wunderground v.1.15,2013-06-15 17:55:00,
2013-06-15 14:00:00,71.3,54.8,29.95,ENE,69,1.0,8.0,56,0.00,,,0.00,Wunderground v.1.15,2013-06-15 18:00:00,
2013-06-15 14:05:00,71.5,52.9,29.95,NE,35,1.0,8.0,52,0.00,,,0.00,Wunderground v.1.15,2013-06-15 18:05:00,
2013-06-15 14:10:00,71.5,52.9,29.95,North,5,1.0,1.0,52,0.00,,,0.00,Wunderground v.1.15,2013-06-15 18:10:00,
2013-06-15 14:20:00,71.3,52.8,29.94,North,5,0.0,8.0,52,0.00,,,0.00,Wunderground v.1.15,2013-06-15 18:20:00,
2013-06-15 14:25:00,71.4,53.4,29.94,NE,38,0.0,8.0,53,0.00,,,0.00,Wunderground v.1.15,2013-06-15 18:25:00,
2013-06-15 14:30:00,71.3,52.8,29.94,NE,47,1.0,8.0,52,0.00,,,0.00,Wunderground v.1.15,2013-06-15 18:30:00,
2013-06-15 14:35:00,71.3,52.2,29.94,ENE,63,1.0,8.0,51,0.00,,,0.00,Wunderground v.1.15,2013-06-15 18:35:00,
2013-06-15 14:40:00,71.2,51.1,29.94,NE,34,1.0,1.0,49,0.00,,,0.00,Wunderground v.1.15,2013-06-15 18:40:00,
2013-06-15 14:45:00,70.9,53.4,29.93,ENE,65,1.0,8.0,54,0.00,,,0.00,Wunderground v.1.15,2013-06-15 18:45:00,
2013-06-15 14:50:00,71.1,51.0,29.93,SW,229,0.0,8.0,49,0.00,,,0.00,Wunderground v.1.15,2013-06-15 18:50:00,
2013-06-15 14:55:00,71.3,52.8,29.93,NNE,19,0.0,8.0,52,0.00,,,0.00,Wunderground v.1.15,2013-06-15 18:55:00,
2013-06-15 15:00:00,71.2,51.1,29.93,ENE,65,1.0,8.0,49,0.00,,,0.00,Wunderground v.1.15,2013-06-15 19:00:00,
2013-06-15 15:10:00,71.7,53.1,29.94,NE,51,1.0,1.0,52,0.00,,,0.00,Wunderground v.1.15,2013-06-15 19:10:00,
2013-06-15 15:15:00,71.9,52.8,29.93,North,9,1.0,8.0,51,0.00,,,0.00,Wunderground v.1.15,2013-06-15 19:15:00,
2013-06-15 15:20:00,71.8,53.7,29.93,ENE,69,1.0,1.0,53,0.00,,,0.00,Wunderground v.1.15,2013-06-15 19:20:00,
2013-06-15 15:25:00,71.9,54.9,29.93,NNE,17,1.0,8.0,55,0.00,,,0.00,Wunderground v.1.15,2013-06-15 19:25:00,
2013-06-15 15:30:00,71.9,53.8,29.93,SW,234,1.0,8.0,53,0.00,,,0.00,Wunderground v.1.15,2013-06-15 19:30:00,
2013-06-15 15:35:00,72.0,54.4,29.93,NE,51,1.0,8.0,54,0.00,,,0.00,Wunderground v.1.15,2013-06-15 19:35:00,
2013-06-15 15:40:00,71.9,53.8,29.93,NE,51,1.0,1.0,53,0.00,,,0.00,Wunderground v.1.15,2013-06-15 19:40:00,
2013-06-15 15:50:00,71.8,52.2,29.92,NNE,13,1.0,1.0,50,0.00,,,0.00,Wunderground v.1.15,2013-06-15 19:50:00,
2013-06-15 15:55:00,71.8,55.3,29.92,NNE,24,1.0,8.0,56,0.00,,,0.00,Wunderground v.1.15,2013-06-15 19:55:00,
2013-06-15 16:00:00,71.7,52.6,29.92,North,360,0.0,8.0,51,0.00,,,0.00,Wunderground v.1.15,2013-06-15 20:00:00,
2013-06-15 16:10:00,71.5,52.9,29.92,NE,50,0.0,8.0,52,0.00,,,0.00,Wunderground v.1.15,2013-06-15 20:10:00,
2013-06-15 16:15:00,71.5,54.5,29.92,NE,52,0.0,8.0,55,0.00,,,0.00,Wunderground v.1.15,2013-06-15 20:15:00,
2013-06-15 16:20:00,71.5,53.5,29.91,NE,53,0.0,8.0,53,0.00,,,0.00,Wunderground v.1.15,2013-06-15 20:20:00,
2013-06-15 16:25:00,71.5,52.4,29.91,South,170,0.0,8.0,51,0.00,,,0.00,Wunderground v.1.15,2013-06-15 20:25:00,
2013-06-15 16:30:00,71.4,53.9,29.91,NE,55,0.0,8.0,54,0.00,,,0.00,Wunderground v.1.15,2013-06-15 20:30:00,
2013-06-15 16:40:00,71.3,53.8,29.91,ENE,64,0.0,8.0,54,0.00,,,0.00,Wunderground v.1.15,2013-06-15 20:40:00,
2013-06-15 16:45:00,71.3,53.3,29.91,ENE,59,0.0,8.0,53,0.00,,,0.00,Wunderground v.1.15,2013-06-15 20:45:00,
2013-06-15 16:50:00,71.4,56.3,29.92,NNW,329,0.0,8.0,59,0.00,,,0.00,Wunderground v.1.15,2013-06-15 20:50:00,
2013-06-15 16:55:00,71.3,53.8,29.92,North,5,1.0,8.0,54,0.00,,,0.00,Wunderground v.1.15,2013-06-15 20:55:00,
2013-06-15 17:00:00,71.3,51.7,29.92,North,355,0.0,8.0,50,0.00,,,0.00,Wunderground v.1.15,2013-06-15 21:00:00,
2013-06-15 17:05:00,71.4,51.2,29.92,NNE,12,0.0,8.0,49,0.00,,,0.00,Wunderground v.1.15,2013-06-15 21:05:00,
2013-06-15 17:10:00,71.4,52.9,29.91,NNE,15,0.0,8.0,52,0.00,,,0.00,Wunderground v.1.15,2013-06-15 21:10:00,
2013-06-15 17:15:00,71.3,51.7,29.91,NNE,13,0.0,8.0,50,0.00,,,0.00,Wunderground v.1.15,2013-06-15 21:15:00,
2013-06-15 17:25:00,71.5,51.9,29.91,North,11,0.0,8.0,50,0.00,,,0.00,Wunderground v.1.15,2013-06-15 21:25:00,
2013-06-15 17:30:00,71.5,52.9,29.91,North,11,0.0,8.0,52,0.00,,,0.00,Wunderground v.1.15,2013-06-15 21:30:00,
2013-06-15 17:35:00,71.5,51.3,29.91,North,11,0.0,8.0,49,0.00,,,0.00,Wunderground v.1.15,2013-06-15 21:35:00,
2013-06-15 17:40:00,71.5,50.2,29.91,ENE,59,0.0,8.0,47,0.00,,,0.00,Wunderground v.1.15,2013-06-15 21:40:00,
2013-06-15 17:45:00,71.5,50.8,29.91,NE,55,0.0,8.0,48,0.00,,,0.00,Wunderground v.1.15,2013-06-15 21:45:00,
2013-06-15 17:50:00,71.4,50.7,29.91,ENE,62,0.0,8.0,48,0.00,,,0.00,Wunderground v.1.15,2013-06-15 21:50:00,
2013-06-15 17:55:00,71.3,55.3,29.91,NE,34,0.0,8.0,57,0.00,,,0.00,Wunderground v.1.15,2013-06-15 21:55:00,
2013-06-15 18:05:00,71.0,50.3,29.91,NE,49,0.0,8.0,48,0.00,,,0.00,Wunderground v.1.15,2013-06-15 22:05:00,
2013-06-15 18:10:00,70.9,51.3,29.91,NE,49,0.0,8.0,50,0.00,,,0.00,Wunderground v.1.15,2013-06-15 22:10:00,
2013-06-15 18:15:00,70.7,51.7,29.91,NE,49,0.0,8.0,51,0.00,,,0.00,Wunderground v.1.15,2013-06-15 22:15:00,
2013-06-15 18:20:00,70.6,50.5,29.91,NNE,14,0.0,8.0,49,0.00,,,0.00,Wunderground v.1.15,2013-06-15 22:20:00,
2013-06-15 18:25:00,70.6,53.1,29.91,NNE,14,0.0,8.0,54,0.00,,,0.00,Wunderground v.1.15,2013-06-15 22:25:00,
2013-06-15 18:30:00,70.5,53.6,29.91,NNE,14,0.0,8.0,55,0.00,,,0.00,Wunderground v.1.15,2013-06-15 22:30:00,
2013-06-15 18:35:00,70.3,51.8,29.91,NNE,16,0.0,8.0,52,0.00,,,0.00,Wunderground v.1.15,2013-06-15 22:35:00,
2013-06-15 18:45:00,70.0,53.6,29.91,NNE,16,0.0,8.0,56,0.00,,,0.00,Wunderground v.1.15,2013-06-15 22:45:00,
2013-06-15 18:50:00,69.5,54.1,29.91,NNE,16,0.0,8.0,58,0.00,,,0.00,Wunderground v.1.15,2013-06-15 22:50:00,
2013-06-15 18:55:00,69.0,54.1,29.91,NNE,16,0.0,8.0,59,0.00,,,0.00,Wunderground v.1.15,2013-06-15 22:55:00,
2013-06-15 19:00:00,68.5,54.1,29.91,NNE,16,0.0,8.0,60,0.00,,,0.00,Wunderground v.1.15,2013-06-15 23:00:00,
2013-06-15 19:05:00,68.1,53.7,29.91,NNE,16,0.0,8.0,60,0.00,,,0.00,Wunderground v.1.15,2013-06-15 23:05:00,
2013-06-15 19:10:00,67.8,53.9,29.90,NNE,16,0.0,8.0,61,0.00,,,0.00,Wunderground v.1.15,2013-06-15 23:10:00,
2013-06-15 19:15:00,67.4,54.4,29.91,NNE,16,0.0,8.0,63,0.00,,,0.00,Wunderground v.1.15,2013-06-15 23:15:00,
2013-06-15 19:20:00,66.8,55.1,29.91,NNE,16,0.0,8.0,66,0.00,,,0.00,Wunderground v.1.15,2013-06-15 23:20:00,
2013-06-15 19:25:00,66.3,55.0,29.91,NNE,16,0.0,8.0,67,0.00,,,0.00,Wunderground v.1.15,2013-06-15 23:25:00,
2013-06-15 19:30:00,65.8,54.9,29.91,NNE,16,0.0,8.0,68,0.00,,,0.00,Wunderground v.1.15,2013-06-15 23:30:00,
2013-06-15 19:40:00,65.0,55.8,29.92,NNE,16,0.0,8.0,72,0.00,,,0.00,Wunderground v.1.15,2013-06-15 23:40:00,
2013-06-15 19:45:00,64.6,55.4,29.92,NNE,16,0.0,8.0,72,0.00,,,0.00,Wunderground v.1.15,2013-06-15 23:45:00,
2013-06-15 19:50:00,64.2,55.7,29.92,NNE,16,0.0,8.0,74,0.00,,,0.00,Wunderground v.1.15,2013-06-15 23:50:00,
2013-06-15 19:55:00,63.9,54.7,29.93,NNE,16,0.0,8.0,72,0.00,,,0.00,Wunderground v.1.15,2013-06-15 23:55:00,
2013-06-15 20:00:00,63.6,55.2,29.93,NNE,16,0.0,8.0,74,0.00,,,0.00,Wunderground v.1.15,2013-06-16 00:00:00,
2013-06-15 20:10:00,62.9,54.9,29.92,NNE,16,0.0,8.0,75,0.00,,,0.00,Wunderground v.1.15,2013-06-16 00:10:00,
2013-06-15 20:15:00,62.6,54.6,29.92,NNE,16,0.0,8.0,75,0.00,,,0.00,Wunderground v.1.15,2013-06-16 00:15:00,
2013-06-15 20:20:00,62.3,54.6,29.92,NNE,16,0.0,8.0,76,0.00,,,0.00,Wunderground v.1.15,2013-06-16 00:20:00,
2013-06-15 20:25:00,62.1,54.8,29.93,NNE,16,0.0,8.0,77,0.00,,,0.00,Wunderground v.1.15,2013-06-16 00:25:00,
2013-06-15 20:30:00,61.9,54.6,29.92,NNE,16,0.0,8.0,77,0.00,,,0.00,Wunderground v.1.15,2013-06-16 00:30:00,
2013-06-15 20:35:00,61.8,54.2,29.92,NNE,16,0.0,8.0,76,0.00,,,0.00,Wunderground v.1.15,2013-06-16 00:35:00,
2013-06-15 20:40:00,61.7,54.4,29.93,NNE,16,0.0,8.0,77,0.00,,,0.00,Wunderground v.1.15,2013-06-16 00:40:00,
2013-06-15 20:50:00,61.4,53.8,29.93,NNE,16,0.0,8.0,76,0.00,,,0.00,Wunderground v.1.15,2013-06-16 00:50:00,
2013-06-15 20:55:00,61.3,53.7,29.93,NNE,16,0.0,8.0,76,0.00,,,0.00,Wunderground v.1.15,2013-06-16 00:55:00,
2013-06-15 21:00:00,61.3,53.7,29.93,NNE,16,0.0,8.0,76,0.00,,,0.00,Wunderground v.1.15,2013-06-16 01:00:00,
2013-06-15 21:05:00,61.1,53.5,29.93,NNE,16,0.0,8.0,76,0.00,,,0.00,Wunderground v.1.15,2013-06-16 01:05:00,
2013-06-15 21:10:00,61.0,53.0,29.93,NNE,16,0.0,8.0,75,0.00,,,0.00,Wunderground v.1.15,2013-06-16 01:10:00,
2013-06-15 21:15:00,60.9,52.9,29.94,NNE,16,0.0,8.0,75,0.00,,,0.00,Wunderground v.1.15,2013-06-16 01:15:00,
2013-06-15 21:20:00,60.8,52.8,29.94,NNE,16,0.0,8.0,75,0.00,,,0.00,Wunderground v.1.15,2013-06-16 01:20:00,
2013-06-15 21:30:00,60.3,53.8,29.94,NNE,16,0.0,8.0,79,0.00,,,0.00,Wunderground v.1.15,2013-06-16 01:30:00,
2013-06-15 21:35:00,59.8,54.3,29.95,NNE,16,0.0,8.0,82,0.00,,,0.00,Wunderground v.1.15,2013-06-16 01:35:00,
2013-06-15 21:40:00,59.3,53.1,29.95,NNE,16,0.0,8.0,80,0.00,,,0.00,Wunderground v.1.15,2013-06-16 01:40:00,
2013-06-15 21:50:00,59.0,53.5,29.95,NNE,16,0.0,8.0,82,0.00,,,0.00,Wunderground v.1.15,2013-06-16 01:50:00,
2013-06-15 21:55:00,59.1,54.3,29.95,NNE,16,0.0,8.0,84,0.00,,,0.00,Wunderground v.1.15,2013-06-16 01:55:00,
2013-06-15 22:00:00,58.9,54.1,29.95,NNE,16,0.0,8.0,84,0.00,,,0.00,Wunderground v.1.15,2013-06-16 02:00:00,
2013-06-15 22:05:00,58.7,54.5,29.96,NNE,16,0.0,8.0,86,0.00,,,0.00,Wunderground v.1.15,2013-06-16 02:05:00,
2013-06-15 22:10:00,58.6,54.4,29.96,NNE,16,0.0,8.0,86,0.00,,,0.00,Wunderground v.1.15,2013-06-16 02:10:00,
2013-06-15 22:20:00,58.4,54.9,29.96,NNE,16,0.0,8.0,88,0.00,,,0.00,Wunderground v.1.15,2013-06-16 02:20:00,
2013-06-15 22:25:00,58.2,53.4,29.96,NNE,16,0.0,8.0,84,0.00,,,0.00,Wunderground v.1.15,2013-06-16 02:25:00,
2013-06-15 22:30:00,58.3,53.5,29.96,NNE,16,0.0,8.0,84,0.00,,,0.00,Wunderground v.1.15,2013-06-16 02:30:00,
2013-06-15 22:35:00,58.3,53.5,29.96,NNE,16,0.0,8.0,84,0.00,,,0.00,Wunderground v.1.15,2013-06-16 02:35:00,
2013-06-15 22:40:00,58.2,53.4,29.96,NNE,16,0.0,8.0,84,0.00,,,0.00,Wunderground v.1.15,2013-06-16 02:40:00,
2013-06-15 22:45:00,58.1,53.9,29.96,NNE,16,0.0,8.0,86,0.00,,,0.00,Wunderground v.1.15,2013-06-16 02:45:00,
2013-06-15 22:50:00,58.0,53.5,29.96,NNE,16,0.0,8.0,85,0.00,,,0.00,Wunderground v.1.15,2013-06-16 02:50:00,
2013-06-15 22:55:00,57.7,53.2,29.96,NNE,19,0.0,8.0,85,0.00,,,0.00,Wunderground v.1.15,2013-06-16 02:55:00,
2013-06-15 23:05:00,56.9,52.8,29.96,NNE,22,0.0,8.0,86,0.00,,,0.00,Wunderground v.1.15,2013-06-16 03:05:00,
2013-06-15 23:10:00,56.5,52.7,29.96,NNE,22,0.0,8.0,87,0.00,,,0.00,Wunderground v.1.15,2013-06-16 03:10:00,
2013-06-15 23:15:00,56.2,52.1,29.97,NNE,22,0.0,8.0,86,0.00,,,0.00,Wunderground v.1.15,2013-06-16 03:15:00,
2013-06-15 23:20:00,55.9,52.4,29.97,NNE,22,0.0,8.0,88,0.00,,,0.00,Wunderground v.1.15,2013-06-16 03:20:00,
2013-06-15 23:25:00,55.7,52.5,29.97,NNE,22,0.0,8.0,89,0.00,,,0.00,Wunderground v.1.15,2013-06-16 03:25:00,
2013-06-15 23:30:00,55.5,52.3,29.97,NNE,22,0.0,8.0,89,0.00,,,0.00,Wunderground v.1.15,2013-06-16 03:30:00,
2013-06-15 23:35:00,55.4,52.5,29.97,NNE,22,0.0,8.0,90,0.00,,,0.00,Wunderground v.1.15,2013-06-16 03:35:00,
2013-06-15 23:45:00,55.1,52.2,29.97,NNE,22,0.0,8.0,90,0.00,,,0.00,Wunderground v.1.15,2013-06-16 03:45:00,
2013-06-15 23:50:00,54.9,51.4,29.97,NNE,22,0.0,8.0,88,0.00,,,0.00,Wunderground v.1.15,2013-06-16 03:50:00,
2013-06-15 23:55:00,54.9,51.4,29.97,NNE,22,0.0,8.0,88,0.00,,,0.00,Wunderground v.1.15,2013-06-16 03:55:00,